TimeEDT,TemperatureF,Dew PointF,Humidity,Sea Level PressureIn,VisibilityMPH,Wind Direction,Wind SpeedMPH,Gust SpeedMPH,PrecipitationIn,Events,Conditions,WindDirDegrees,DateUTC
12:53 AM,46.9,44.1,90,30.18,10.0,Calm,Calm,-,N/A,,Clear,0,2013-05-07 04:53:00
1:53 AM,46.0,43.0,89,30.17,8.0,Calm,Calm,-,N/A,,Clear,0,2013-05-07 05:53:00
2:53 AM,45.0,43.0,93,30.16,10.0,Calm,Calm,-,N/A,,Clear,0,2013-05-07 06:53:00
3:08 AM,44.6,42.8,93,30.16,1.8,Calm,Calm,-,N/A,,Clear,0,2013-05-07 07:08:00
3:18 AM,44.6,42.8,93,30.16,3.0,Calm,Calm,-,N/A,,Clear,0,2013-05-07 07:18:00
3:49 AM,44.6,42.8,93,30.16,1.8,Calm,Calm,-,N/A,,Clear,0,2013-05-07 07:49:00
3:53 AM,45.0,43.0,93,30.17,2.5,Calm,Calm,-,N/A,,Clear,0,2013-05-07 07:53:00
4:00 AM,44.6,42.8,93,30.16,4.0,Calm,Calm,-,N/A,,Clear,0,2013-05-07 08:00:00
4:13 AM,44.6,42.8,93,30.17,1.8,Calm,Calm,-,N/A,,Clear,0,2013-05-07 08:13:00
4:20 AM,44.6,42.8,93,30.17,3.0,Calm,Calm,-,N/A,,Clear,0,2013-05-07 08:20:00
4:45 AM,42.8,41.0,93,30.16,1.8,Calm,Calm,-,N/A,,Clear,0,2013-05-07 08:45:00
4:53 AM,44.1,41.0,89,30.16,2.0,Calm,Calm,-,N/A,,Clear,0,2013-05-07 08:53:00
5:10 AM,42.8,39.2,87,30.16,8.0,Calm,Calm,-,N/A,,Clear,0,2013-05-07 09:10:00
5:53 AM,43.0,41.0,93,30.16,4.0,Calm,Calm,-,N/A,,Clear,0,2013-05-07 09:53:00
6:53 AM,48.0,46.0,93,30.17,10.0,Calm,Calm,-,N/A,,Clear,0,2013-05-07 10:53:00
7:53 AM,54.0,48.0,80,30.17,10.0,Calm,Calm,-,N/A,,Clear,0,2013-05-07 11:53:00
8:53 AM,62.1,46.9,58,30.18,10.0,North,3.5,-,N/A,,Clear,350,2013-05-07 12:53:00
9:53 AM,66.0,48.0,52,30.18,10.0,Calm,Calm,-,N/A,,Clear,0,2013-05-07 13:53:00
10:53 AM,69.1,48.0,47,30.17,10.0,Calm,Calm,-,N/A,,Clear,0,2013-05-07 14:53:00
11:53 AM,73.0,48.9,42,30.15,10.0,ESE,8.1,-,N/A,,Clear,110,2013-05-07 15:53:00
12:53 PM,72.0,52.0,49,30.14,10.0,Variable,5.8,-,N/A,,Partly Cloudy,0,2013-05-07 16:53:00
1:53 PM,75.0,53.1,46,30.12,10.0,South,9.2,16.1,N/A,,Scattered Clouds,180,2013-05-07 17:53:00
2:53 PM,73.9,55.9,53,30.12,10.0,South,13.8,20.7,N/A,,Mostly Cloudy,170,2013-05-07 18:53:00
3:53 PM,73.0,55.0,53,30.11,10.0,SE,9.2,16.1,N/A,,Clear,140,2013-05-07 19:53:00
4:53 PM,73.0,54.0,51,30.11,10.0,South,10.4,19.6,N/A,,Scattered Clouds,190,2013-05-07 20:53:00
5:53 PM,71.1,55.0,57,30.11,10.0,SSE,11.5,-,N/A,,Clear,160,2013-05-07 21:53:00
6:53 PM,69.1,55.0,61,30.12,10.0,South,10.4,-,N/A,,Clear,190,2013-05-07 22:53:00
7:53 PM,66.0,54.0,65,30.13,10.0,South,4.6,-,N/A,,Clear,170,2013-05-07 23:53:00
8:53 PM,62.1,54.0,75,30.14,10.0,Calm,Calm,-,N/A,,Clear,0,2013-05-08 00:53:00
9:53 PM,61.0,55.0,81,30.16,10.0,Calm,Calm,-,N/A,,Clear,0,2013-05-08 01:53:00
10:53 PM,59.0,55.0,87,30.16,10.0,Calm,Calm,-,N/A,,Clear,0,2013-05-08 02:53:00
11:53 PM,59.0,55.9,90,30.15,10.0,Calm,Calm,-,N/A,,Clear,0,2013-05-08 03:53:00